Weather History for Topeka, KS

Change the Weather History Date:

Sunday, August 25, 2013

  Actual Average Record
Temperature  
Mean Temperature 83 °F 76 °F  
Max Temperature 94 °F 88 °F 109 °F (1936)
Min Temperature 71 °F 65 °F 47 °F (1958)
Degree Days  
Heating Degree Days 0 0  
Month to date heating degree days 0 0  
Since 1 June heating degree days 5 8  
Since 1 July heating degree days 0 0  
Cooling Degree Days 18 11  
Month to date cooling degree days 271 324  
Year to date cooling degree days 1177 1166  
Since 1 June cooling degree days 1032 1040  
Growing Degree Days 32 (Base 50)    
Moisture  
Dew Point 69 °F    
Average Humidity 65    
Maximum Humidity 84    
Minimum Humidity 46    
Precipitation  
Precipitation 0.00 in 0.14 in 2.55 in (2012)
Month to date precipitation 5.19 3.42  
Year to date precipitation 24.45 25.75  
Snow  
Snow 0.00 in 0.00 in 0.00 in ()
Month to date snowfall 0.0 0.0  
Year to date snowfall 24.2 11.3  
Since 1 July snowfall 0.0 0.0  
Snow Depth 0.00 in    
Sea Level Pressure  
Sea Level Pressure 30.12 in    
Wind  
Wind Speed 8 mph (SSE)    
Max Wind Speed 16 mph    
Max Gust Speed 21 mph    
Visibility 9 miles    
Events      
T = Trace of Precipitation, MM = Missing Value Source: NWS Daily Summary

Daily Weather History Graph

Daily Weather History Graph

Search for Another Location

Airport:

Trip Planner

Search our weather history database for the weather conditions in past years. The results will help you decide how hot, cold, wet, or windy it might be!

Date:

Astronomy

Aug. 25, 2013 Rise Set
Actual Time 6:45 AM CDT 8:03 PM CDT
Civil Twilight 6:17 AM CDT 8:30 PM CDT
Nautical Twilight 5:44 AM CDT 9:04 PM CDT
Astronomical Twilight 5:09 AM CDT 9:38 PM CDT
Moon 10:37 PM CDT (8/25) 11:45 AM CDT (8/25)
Length of Visible Light 14h 13m
Length of Day
13h 17m
Waning Gibbous, 75% of the Moon is Illuminated
Aug 25
Waning Gibbous
Aug 28
Last Quarter
Sep 5
New
Sep 12
First Quarter
Sep 19
Full

Hourly Weather History & Observations

Time (CDT) Temp. Heat Index Dew Point Humidity Pressure Visibility Wind Dir Wind Speed Gust Speed Precip Events Conditions
12:53 AM 78.1 °F - 69.1 °F 74% 30.09 in 10.0 mi SSE 8.1 mph - N/A   Clear
1:53 AM 78.1 °F - 69.1 °F 74% 30.10 in 9.0 mi SSE 5.8 mph - N/A   Clear
2:53 AM 75.9 °F - 68.0 °F 76% 30.10 in 9.0 mi SSE 6.9 mph - N/A   Clear
3:53 AM 75.0 °F - 68.0 °F 79% 30.12 in 9.0 mi SE 3.5 mph - N/A   Clear
4:53 AM 73.9 °F - 68.0 °F 82% 30.13 in 8.0 mi SE 6.9 mph - N/A   Clear
5:53 AM 73.0 °F - 66.9 °F 81% 30.14 in 8.0 mi ESE 3.5 mph - N/A   Clear
6:53 AM 72.0 °F - 66.9 °F 84% 30.16 in 5.0 mi East 3.5 mph - N/A   Haze
7:53 AM 73.9 °F - 68.0 °F 82% 30.17 in 6.0 mi ESE 4.6 mph - N/A   Haze
8:53 AM 79.0 °F - 70.0 °F 74% 30.17 in 7.0 mi South 8.1 mph - N/A   Clear
9:53 AM 82.9 °F 87.5 °F 71.1 °F 67% 30.17 in 9.0 mi South 8.1 mph - N/A   Clear
10:53 AM 84.9 °F 90.1 °F 71.1 °F 63% 30.17 in 10.0 mi SSW 11.5 mph - N/A   Clear
11:53 AM 88.0 °F 93.8 °F 71.1 °F 57% 30.14 in 10.0 mi South 13.8 mph - N/A   Clear
12:53 PM 90.0 °F 96.4 °F 71.1 °F 54% 30.12 in 10.0 mi SSW 11.5 mph - N/A   Clear
1:53 PM 91.9 °F 98.4 °F 71.1 °F 50% 30.11 in 10.0 mi SSE 13.8 mph - N/A   Clear
2:53 PM 91.9 °F 97.4 °F 70.0 °F 48% 30.09 in 10.0 mi SSE 10.4 mph - N/A   Partly Cloudy
3:53 PM 93.0 °F 99.0 °F 70.0 °F 47% 30.08 in 10.0 mi South 11.5 mph - N/A   Clear
4:53 PM 93.0 °F 97.9 °F 69.1 °F 45% 30.08 in 10.0 mi SSE 13.8 mph - N/A   Partly Cloudy
5:53 PM 91.9 °F 95.9 °F 68.0 °F 45% 30.08 in 10.0 mi South 11.5 mph - N/A   Clear
6:53 PM 91.0 °F 95.6 °F 69.1 °F 48% 30.08 in 10.0 mi South 10.4 mph - N/A   Clear
7:53 PM 86.0 °F 90.7 °F 70.0 °F 59% 30.09 in 10.0 mi SSE 6.9 mph - N/A   Clear
8:53 PM 82.0 °F 85.9 °F 70.0 °F 67% 30.09 in 10.0 mi SSE 5.8 mph - N/A   Clear
9:53 PM 82.0 °F 85.9 °F 70.0 °F 67% 30.11 in 10.0 mi SSE 9.2 mph - N/A   Clear
10:53 PM 81.0 °F 84.4 °F 70.0 °F 69% 30.12 in 10.0 mi SSE 5.8 mph - N/A   Clear
11:53 PM 78.1 °F - 70.0 °F 76% 30.13 in 10.0 mi SE 3.5 mph - N/A   Clear